SL-16 DEB, 22453

Orbit data source: Space-Track

SL-16 DEB, 22453 is space debris in LEO originally from a launch on Fri, 25 Dec 1992 UTC launched from the Tyuratam Missile And Space Complex (TTMTR). Debris objects in space refer to the collection of defunct objects orbiting the Earth. Examples of debris include non-operational satellites, rocket bodies, and fragments generated from explosions, collisions, or faulty payload assembly.

Loading next visibility...
Identifier
22453, 1992-093ES
Orbit
LEO
Country
Flag of CISCIS
Related business
Manufacturer
Unknown
Mission
Spacecraft
Bus & Motor
Unknown
Mass
Unknown
Launch date (UTC)
1992-12-25 (33 years ago)
Launch vehicle
Unknown
Launch site
Tyuratam Missile And Space Complex (TTMTR)
Object type
Payload
Rocket body
Debris
Shape & HBR
Unknown shape, 0.1 m
Radar Cross Section
Small (<0.1 m²)

Expand to show TLE details & history
Last TLE update: 1 day ago

TLE from 1 day ago
0 SL-16 DEB
1 22453U 92093ES  25348.90645853  .00000664  00000-0  52488-3 0  9997
2 22453  70.8030 149.6212 0167922 349.6272 134.6162 13.88880563661546
Epoch: 2025-12-14T21:45Z
TLE epoch observation values (Epoch: 2025-12-14T21:45:18.016Z)
Latitude
50.2779°
Longitude
-105.1552°
Altitude
1,027.278 km
Speed
7.299 km/s
True Right ascension
20h 19m 55s
True Declination
50° 06' 54"
Sunlit
Object was in daylight at epoch
Visualization orbit readout
Latitude
Unknown
Longitude
Unknown
Altitude
Unknown
Speed
Unknown
Apparent Right ascension
Unknown
Apparent Declination
Unknown
Sunlit
N/A
Visualization observer readout
Local Sidereal Time
00:24:34
Azimuth
Unknown
Elevation
Unknown
Doppler factor
Unknown
Orbital elements
Apogee altitude
1,053.254 km
Perigee altitude
807.797 km
Semi-major axis
7,308.662 km
Eccentricity
0.01679
Inclination
70.803°
RAAN
149.6212°
Arg. of periapsis
349.6272°
True anomaly
135.96589°
Mean anomaly
134.6162°
Eccentric anomaly
135.29303°
Mean motion
3.47365 °/min
Orbital period
103.64 mins
BSTAR
0.00052488
Loading maneuver chart data...
Computing Atmospheric mass density...
Loading historical data...
Loading historical data...
Loading historical data...
Loading historical data...
Loading historical data...
Loading historical data...
Loading historical data...

Documentation

Showing up to 5 results
|